DECAYED

STARLINK-2267, 48031 (Decayed)

Orbit data source: Space-Track

STARLINK-2267, 48031 was a payload satellite owned by SpaceX/Seattle (US) in LEO that was launched on Wed, 24 Mar 2021 UTC via an FALCON 9 launch vehicle from the Air Force Eastern Test Range (AFETR). Payload-class satellites include a variety of spacecraft equipped with specific instruments for various scientific and technological missions. These include communications satellites like Starlink; space stations such as the ISS; scientific satellites like the Hubble; Earth observation satellites from companies like Planet Labs, Umbra, and HawkEye 360; GPS; miniature CubeSats for education and research; and military/defense satellites.

Not visible in the next 10 days
Identifier
48031, 2021-024BG
Orbit
Decayed
Country
Flag of USUS
Related business
Manufacturer
SpaceX/Seattle
Mission
Decayed Commercial Communications
Bus & Motor
STARLINK, Unknown motor
Mass
260 kg wet, ~248 kg dry
Launch date (UTC)
2021-03-24 (5 years ago)
Launch vehicle
FALCON 9
Launch site
Air Force Eastern Test Range (AFETR)
Object type
Payload
Rocket body
Debris
Shape & HBR
Box + 1 Pan, 10.1 m
Radar Cross Section
13.562 m², Large (>1 m²)

Expand to show TLE details & history
Last TLE update: 1 year ago

TLE from 1 year ago
0 STARLINK-2267
1 48031U 21024BG  25048.90906128  .19653948  12573-4  31799-3 0  9998
2 48031  53.0204 109.4183 0002595 246.0877 292.3139 16.48174977218186
Epoch: 2025-02-17T21:49Z
TLE epoch observation values (Epoch: 2025-02-17T21:49:02.894Z)
Latitude
1.22289°
Longitude
173.11954°
Altitude
144.283 km
Speed
7.821 km/s
True Right ascension
19h 14m 00s
True Declination
1° 12' 54"
Sunlit
Object was in daylight at epoch
Visualization orbit readout
Latitude
Unknown
Longitude
Unknown
Altitude
Unknown
Speed
Unknown
Apparent Right ascension
Unknown
Apparent Declination
Unknown
Sunlit
N/A
Visualization observer readout
Local Sidereal Time
19:53:07
Azimuth
Unknown
Elevation
Unknown
Doppler factor
Unknown
Orbital elements
Apogee altitude
146.131 km
Perigee altitude
142.746 km
Semi-major axis
6,522.576 km
Eccentricity
0.00026
Inclination
53.0204°
RAAN
109.4183°
Arg. of periapsis
246.0877°
True anomaly
292.28639°
Mean anomaly
292.3139°
Eccentric anomaly
292.30014°
Mean motion
4.12016 °/min
Orbital period
87.38 mins
BSTAR
0.00031799
Loading maneuver chart data...
Computing Atmospheric mass density...

Documentation

Showing up to 5 results
|